CALSPHERE 1 1 00900U 64063C 26106.88463994 .00000509 00000+0 50832-3 0 9998 2 00900 90.2205 70.3292 0027735 114.2754 278.1257 13.76549480 62995 CALSPHERE 2 1 00902U 64063E 26106.86674627 .00000033 00000+0 36490-4 0 9992 2 00902 90.2328 74.3254 0020173 49.5377 12.1237 13.52895145847974 LCS 1 1 01361U 65034C 26106.87817655 .00000011 00000+0 37451-3 0 9995 2 01361 32.1456 322.5985 0013319 264.5141 95.3837 9.89310047203818 TEMPSAT 1 1 01512U 65065E 26106.52792081 .00000012 00000+0 45029-5 0 9997 2 01512 90.0001 212.5815 0071278 62.7548 309.9117 13.33591204951839 CALSPHERE 4A 1 01520U 65065H 26106.77306670 .00000096 00000+0 16769-3 0 9997 2 01520 89.8970 123.1005 0067592 277.1238 260.1966 13.36266621954501 OPS 5712 (P/L 160) 1 02826U 67053A 26106.77022204 .00003974 00000+0 57489-3 0 9996 2 02826 69.9170 188.7252 0002244 232.4016 127.6927 14.76900976 57167 OPS 5712 (P/L 153) 1 02874U 67053H 26106.53916968 -.00000007 00000+0 33405-4 0 9990 2 02874 69.9733 247.4403 0010020 273.8493 86.1467 13.96819308998177 RIGIDSPHERE 2 (LCS 4) 1 05398U 71067E 26106.81038977 .00000474 00000+0 14776-3 0 9996 2 05398 87.6265 355.8509 0062267 76.8719 283.9419 14.37799010865069 COSMOS 2493 (SKRL-756 1) 1 39490U 13078A 26106.79475934 .00001866 00000+0 14069-3 0 9990 2 39490 82.4119 321.2447 0014555 91.3181 268.9711 15.01833309668746 COSMOS 2494 (SKRL-756 2) 1 39491U 13078B 26106.83555565 .00002342 00000+0 16486-3 0 9990 2 39491 82.4101 310.8476 0017584 55.6021 304.6865 15.04491177669582